ROMMA est une association bénévole à but non lucratif. Votre soutien est indispensable : ADHERER à ROMMA ou FAIRE un DON

La Javie - (04, Alpes de Haute Provence)

Vallée de la Bléone (820 m)   Longitude: 06° 21' E   Latitude: 44° 10' N Station partenaire n°129
 

Détail journalier du     <<     >>

Température Precipitation Humidité Pression Vent Dir Rafale Dir. rafale Ensol.
Heure (°C) (mm) (%) (hPa) (km/h) (km/h) (min)
01:00 14.1095102600---0
02:00 13.6096102600---0
03:00 13.1097102600---0
04:00 12.6098102500---0
05:00 12.3099102500---0
06:00 11.9099102500---0
07:00 11.80100102500---0
08:00 12.20100102600---0
09:00 13.6098102600---0
10:00 19.7075102500---0
11:00 21.9056102508---0
12:00 21.9055102606---0
13:00 22.205910252---14---0
14:00 22.304710251---10---0
15:00 23.31561024010---0
16:00 23.60521024010---0
17:00 23.505210233---14---0
18:00 19.10.27710251---14---0
19:00 16.10.27610272---19---0
20:00 15.606810272---21---0
21:00 16.405610252---14---0
22:00 15.30711023010---0
23:00 13.607510241---8---0
minuit 12.7075102406---0

Graphique du 23-05-2020

 

Serveur OMMA